weather.gov     
National Weather Service

Regional Weather Roundup
NWS Homepage
This page is being discontinued on March 12, 2014.
The same data is available at this site. Please update your bookmarks.
Thank you, and we apologize for the inconvenience.
Please send an email to SR-SRH.Webmaster@noaa.gov with any concerns.


Current Version
Previous Version:    01  02  03  04  05  06  07  08  09  10  11  12  13  14  15  16  17  18  19  20  21  22  23  24  25  26  27  28  29  30  
   31  32  33  34  35  36  37  38  39  40  41  42  43  44  45  46  47  48  49  50  51  52  53  54  55  56  57  58  59  60  
[Printable]
040
ASUS44 KLIX 211010
RWRLA
LOUISIANA WEATHER ROUNDUP
NATIONAL WEATHER SERVICE NEW ORLEANS LA
500 AM CDT TUE OCT 21 2014

NOTE: "FAIR" INDICATES FEW OR NO CLOUDS BELOW 12,000 FEET WITH NO
      SIGNIFICANT WEATHER AND/OR OBSTRUCTIONS TO VISIBILITY.
      SKY/WX - SKY CONDITION AND SIGNIFICANT WEATHER.
      TMP - AIR TEMPERATURE.    DP   - DEWPOINT TEMPERATURE.
      RH  - RELATIVE HUMIDITY.  PRES - PRESSURE.
      HX  - HEAT INDEX.         WCI  - WIND CHILL INDEX.

*  THESE STATIONS ARE NOT NWS OR FAA STATIONS AND ARE NOT UNDER
   NWS QUALITY CONTROL.

LAZ040-048-061>063-065-066-069-211100-
SOUTHEAST LOUISIANA

CITY           SKY/WX    TMP DP  RH WIND       PRES   REMARKS
N.O. AUDUBON   NOT AVBL
N.O. INTL ARPT CLEAR     60  54  80 CALM      30.01R
N.O. LAKEFRONT CLEAR     69  55  60 NE10      30.01S
N.O. DOWNTOWN* FAIR      66  52  59 NE6       30.01S
SLIDELL        CLEAR     51  48  89 CALM      30.02R
BATON ROUGE    CLEAR     56  52  86 NE5       30.02R
BOOTHVILLE     CLEAR     71  59  65 NE3       30.00S
BELLE CHASSE   CLEAR     54  51  90 CALM      30.01R
BOGALUSA*        N/A     49  46  88 CALM      30.04R
NEW ROADS*     FAIR      54  53  97 CALM      30.03R
GONZALES*      FAIR      55  55 100 CALM      30.01S
HAMMOND*         N/A     52  48  87 CALM      30.04R
HOUMA*         CLEAR     57  56  95 N3        30.00S
PORT FOURCHON* SUNNY     70  59  68 NE7       30.02F

$$

LAZ041-044-053-054-211100-
SOUTHWEST LOUISIANA

CITY           SKY/WX    TMP DP  RH WIND       PRES   REMARKS
LAKE CHARLES   CLEAR     57  54  89 NE3       30.02R
LAFAYETTE      CLEAR     56  54  93 CALM      30.02R
PATTERSON      NOT AVBL
SALT POINT       N/A     61  57  87 CALM      30.00R
NEW IBERIA     CLEAR     56  54  93 CALM      30.03R
CHENAULT AIRPK NOT AVBL

$$

LAZ027-028-211100-
CENTRAL LOUISIANA

CITY           SKY/WX    TMP DP  RH WIND       PRES   REMARKS
FORT POLK      CLEAR     57  54  87 VRB1      30.03R
ALEXANDRIA INT CLEAR     54  53  97 CALM      30.02R
ALEXANDRIA     CLEAR     52  50  93 CALM      30.04R

$$

LAZ001-002-211100-
NORTHWEST LOUISIANA

CITY           SKY/WX    TMP DP  RH WIND       PRES   REMARKS
SHREVEPORT     CLEAR     56  54  93 CALM      30.04R
BARKSDALE AFB  CLEAR     55  54  97 CALM      30.05R
DTN SHREVEPORT CLEAR     55  54  96 CALM      30.05R

$$

LAZ014-016-211100-
NORTHEAST LOUISIANA

CITY           SKY/WX    TMP DP  RH WIND       PRES   REMARKS
MONROE         CLEAR     54  54 100 CALM      30.07R FOG
TALLULAH       MOCLDY    49  48  97 CALM      30.06R

$$





U.S. Dept. of Commerce
NOAA National Weather Service
1325 East West Highway
Silver Spring, MD 20910
E-mail: w-nws.webmaster@noaa.gov
Page last modified: May 16, 2007
NATIONAL WEATHER SERVICE: for Safety, for Work, for Fun - FOR LIFE